EW4424 Weather Reports


Display with metric or nautical units.
time (UTC)temp
F
wind
direction
speed
MPH
gust
MPH
rain 1hr
in
rain 24hr
in
rain mn
in
humidity
%
barometer
mb
20210225024514 65 0 0.0 0.0 0.00 0.00 0.00 25 1010.3
20210225023024 65 0 0.0 0.0 0.00 0.00 0.00 24 1010.1
20210225021514 67 0 0.0 0.0 0.00 0.00 0.00 22 1010.1
20210225020020 70 210 0.0 1.0 0.00 0.00 0.00 19 1010.0
20210225014520 73 236 0.0 1.0 0.00 0.00 0.00 16 1009.9
20210225013150 74 273 0.0 1.0 0.00 0.00 0.00 15 1009.9
20210225011523 76 256 2.0 6.0 0.00 0.00 0.00 14 1009.9
20210225010029 77 263 1.0 3.0 0.00 0.00 0.00 14 1009.8
20210225004529 79 219 1.0 4.0 0.00 0.00 0.00 13 1009.9
20210225003142 79 225 2.0 5.0 0.00 0.00 0.00 13 1009.9
20210225001528 79 255 2.0 7.0 0.00 0.00 0.00 13 1010.0
20210225000026 79 219 3.0 9.0 0.00 0.00 0.00 13 1009.9
20210224234521 79 242 5.0 11.0 0.00 0.00 0.00 13 1010.1
20210224233027 80 270 1.0 6.0 0.00 0.00 0.00 13 1010.2
20210224231523 80 218 2.0 5.0 0.00 0.00 0.00 13 1010.3
20210224230021 79 209 2.0 7.0 0.00 0.00 0.00 13 1010.4
20210224224520 79 208 2.0 7.0 0.00 0.00 0.00 13 1010.7
20210224223029 79 251 2.0 7.0 0.00 0.00 0.00 13 1011.0
20210224221521 79 152 1.0 3.0 0.00 0.00 0.00 13 1011.1
20210224220027 78 243 2.0 7.0 0.00 0.00 0.00 14 1011.3
20210224214520 78 233 2.0 7.0 0.00 0.00 0.00 14 1011.5
20210224213022 78 250 3.0 8.0 0.00 0.00 0.00 14 1011.6
20210224211522 76 246 2.0 5.0 0.00 0.00 0.00 15 1011.7
20210224210018 77 241 2.0 7.0 0.00 0.00 0.00 15 1011.9
20210224204518 76 244 1.0 4.0 0.00 0.00 0.00 15 1012.2
20210224203021 77 231 1.0 7.0 0.00 0.00 0.00 14 1012.6
20210224201510 75 239 1.0 4.0 0.00 0.00 0.00 14 1012.9
20210224200028 74 220 1.0 4.0 0.00 0.00 0.00 14 1013.2
20210224194518 74 193 0.0 3.0 0.00 0.00 0.00 15 1013.4
20210224193023 73 231 2.0 5.0 0.00 0.00 0.00 14 1013.8
20210224191523 72 207 1.0 3.0 0.00 0.00 0.00 15 1014.0
20210224190023 72 224 1.0 3.0 0.00 0.00 0.00 16 1014.2
20210224184516 71 130 1.0 3.0 0.00 0.00 0.00 16 1014.4
20210224183038 70 56 0.0 2.0 0.00 0.00 0.00 17 1014.5
20210224181527 69 331 0.0 1.0 0.00 0.00 0.00 18 1014.7
20210224180028 67 225 0.0 3.0 0.00 0.00 0.00 20 1014.8
20210224174530 66 226 0.0 2.0 0.00 0.00 0.00 20 1015.0
20210224173019 66 118 0.0 1.0 0.00 0.00 0.00 22 1015.0
20210224171520 64 94 0.0 3.0 0.00 0.00 0.00 22 1015.1
20210224170019 62 82 0.0 2.0 0.00 0.00 0.00 24 1015.2
20210224164522 60 34 0.0 3.0 0.00 0.00 0.00 25 1015.2
20210224163018 59 10 1.0 2.0 0.00 0.00 0.00 27 1015.3
20210224161510 58 213 0.0 1.0 0.00 0.00 0.00 27 1015.3
20210224160027 56 70 0.0 2.0 0.00 0.00 0.00 29 1015.3
20210224154520 55 92 0.0 2.0 0.00 0.00 0.00 31 1015.2
20210224153010 55 100 0.0 2.0 0.00 0.00 0.00 31 1015.0
20210224151521 52 178 0.0 1.0 0.00 0.00 0.00 37 1014.8
20210224150020 50 0 0.0 0.0 0.00 0.00 0.00 40 1014.9
20210224144520 49 0 0.0 0.0 0.00 0.00 0.00 41 1014.6
20210224143022 46 0 0.0 0.0 0.00 0.00 0.00 46 1014.4
20210224141517 43 0 0.0 0.0 0.00 0.00 0.00 49 1014.3
20210224140021 43 260 0.0 2.0 0.00 0.00 0.00 49 1014.0
20210224134521 43 0 0.0 0.0 0.00 0.00 0.00 48 1013.8
20210224133044 43 0 0.0 0.0 0.00 0.00 0.00 48 1013.7
20210224131521 44 0 0.0 0.0 0.00 0.00 0.00 46 1013.4
20210224130021 43 218 0.0 1.0 0.00 0.00 0.00 48 1013.5
20210224124524 44 0 0.0 0.0 0.00 0.00 0.00 46 1013.5
20210224123040 45 263 0.0 1.0 0.00 0.00 0.00 44 1013.3
20210224121511 46 0 0.0 0.0 0.00 0.00 0.00 43 1013.1
20210224120020 46 0 0.0 0.0 0.00 0.00 0.00 43 1013.1
20210224114529 47 177 0.0 1.0 0.00 0.00 0.00 42 1012.8
20210224113018 46 0 0.0 0.0 0.00 0.00 0.00 42 1012.7
20210224111522 47 0 0.0 0.0 0.00 0.00 0.00 41 1012.7
20210224110022 48 78 0.0 2.0 0.00 0.00 0.00 39 1012.6
20210224104517 48 103 0.0 2.0 0.00 0.00 0.00 40 1012.6
20210224103018 48 148 0.0 1.0 0.00 0.00 0.00 41 1012.7
20210224101521 48 0 0.0 0.0 0.00 0.00 0.00 40 1012.7
20210224100020 48 104 0.0 1.0 0.00 0.00 0.00 41 1012.8
20210224094515 47 225 0.0 1.0 0.00 0.00 0.00 43 1012.8
20210224093027 48 0 0.0 0.0 0.00 0.00 0.00 43 1012.8
20210224091523 49 111 0.0 1.0 0.00 0.00 0.00 42 1012.9
20210224090024 50 0 0.0 0.0 0.00 0.00 0.00 41 1012.8
20210224084518 50 281 0.0 2.0 0.00 0.00 0.00 40 1012.9
20210224083012 50 0 0.0 0.0 0.00 0.00 0.00 41 1012.7
20210224081514 50 0 0.0 0.0 0.00 0.00 0.00 41 1012.6
20210224080020 50 0 0.0 0.0 0.00 0.00 0.00 41 1012.5
20210224074518 51 0 0.0 0.0 0.00 0.00 0.00 40 1012.5
20210224073020 52 0 0.0 1.0 0.00 0.00 0.00 38 1012.6
20210224071520 53 0 0.0 1.0 0.00 0.00 0.00 37 1012.6
20210224070010 53 0 0.0 0.0 0.00 0.00 0.00 37 1012.5
20210224064518 53 0 0.0 1.0 0.00 0.00 0.00 37 1012.6
20210224063020 52 0 0.0 0.0 0.00 0.00 0.00 38 1012.7
20210224061520 53 0 0.0 0.0 0.00 0.00 0.00 37 1012.8
20210224060018 55 0 0.0 0.0 0.00 0.00 0.00 34 1012.7
20210224054512 55 0 0.0 0.0 0.00 0.00 0.00 33 1012.7
20210224053022 56 0 0.0 0.0 0.00 0.00 0.00 33 1012.7
20210224051518 56 0 0.0 0.0 0.00 0.00 0.00 32 1012.6
20210224050025 56 0 0.0 1.0 0.00 0.00 0.00 32 1012.5
20210224044521 56 0 0.0 0.0 0.00 0.00 0.00 32 1012.4
20210224043020 57 0 0.0 0.0 0.00 0.00 0.00 30 1012.2
20210224041518 57 0 0.0 0.0 0.00 0.00 0.00 29 1011.9
20210224040030 57 0 0.0 0.0 0.00 0.00 0.00 29 1011.7
20210224034522 60 0 0.0 0.0 0.00 0.00 0.00 28 1011.5
20210224033022 60 0 0.0 0.0 0.00 0.00 0.00 26 1011.6
20210224031522 62 0 0.0 0.0 0.00 0.00 0.00 24 1011.6
20210224030022 63 0 0.0 0.0 0.00 0.00 0.00 22 1011.5